Regional Weather Roundup
Issued by NWS Cleveland, OH

Home | Current Version | Previous Version | Graphics & Text | Print | Product List | Glossary On
Versions: 1 2 3 4 5 6 7 8 9 10 11 12 13 14 15 16 17 18 19 20 21 22 23 24 25 26 27 28 29 30 31 32 33 34 35 36 37 38 39 40 41 42 43 44 45 46 47 48 49 50
000
ASUS41 KCLE 191410
RWRCLE
OHIO REGIONAL WEATHER ROUNDUP
NATIONAL WEATHER SERVICE WILMINGTON, OH
900 AM EST SUN NOV 19 2017

NOTE: "FAIR" INDICATES FEW OR NO CLOUDS BELOW 12,000 FEET WITH NO
SIGNIFICANT WEATHER AND/OR OBSTRUCTIONS TO VISIBILITY.

OHZ001>008-015>018-024>027-034-035-043-044-191500-
   NORTHWEST OHIO

CITY           SKY/WX    TMP DP  RH WIND       PRES   REMARKS
DEFIANCE       CLOUDY    37  29  72 W8        29.88R
FINDLAY        CLOUDY    38  30  73 NW12      29.86R
TOLEDO EXPRESS CLOUDY    36  32  85 W10       29.86R
TOLEDO EXEC    CLOUDY    37  28  70 W16       29.86R
LIMA           NOT AVBL
$$

OHZ009>014-019>023-028>033-038-089-191500-
   NORTHEAST OHIO

CITY           SKY/WX    TMP DP  RH WIND       PRES   REMARKS
CLE-HOPKINS    CLOUDY    38  28  67 NW14G23   29.82R
CLE-LAKEFRONT  CLOUDY    39  30  70 W25G37    29.78R
CUY CO. ARPT   CLOUDY    37  34  87 NW16G23   29.78R
LORAIN-ELYRIA  FLURRIES  35  25  66 W17G23    29.83R WCI  25
ASHTABULA      CLOUDY    38  28  67 NW15G26   29.74R
AKRON-CANTON   CLOUDY    37  28  70 W12G23    29.78R
WOOSTER        CLOUDY    35  27  72 NW18G24   29.82R WCI  24
MANSFIELD      CLOUDY    35  27  72 W7        29.82S WCI  29
YOUNGSTOWN     CLOUDY    37  30  75 W10G20    29.74R
$$

OHZ042-051>053-060>062-070>072-077>081-191500-
  SOUTHWEST OHIO

CITY           SKY/WX    TMP DP  RH WIND       PRES   REMARKS
CINC-COVINGTON CLOUDY    38  32  79 W7        29.97R
CINC-LUNKEN    CLOUDY    40  30  67 W9        29.99R
HAMILTON       CLOUDY    39  31  72 W8        29.98R
DAYTON         CLOUDY    37  32  82 W13       29.93R
WRIGHT-PAT AFB CLOUDY    38  31  77 W13       29.93R
DAYTON GENERAL CLOUDY    38  30  73 W10       29.94R
WILMINGTON     CLOUDY    37  32  82 W13       29.93R
$$

OHZ036-037-039>041-045>050-054>059-063>069-073>076-082>088-191500-
  CENTRAL AND SOUTHEAST OHIO

CITY           SKY/WX    TMP DP  RH WIND       PRES   REMARKS
COLUMBUS       CLOUDY    39  34  82 W12       29.88R
OSU AIRPORT    LGT RAIN  38  34  85 W12       29.88R
BOLTON FIELD   CLOUDY    37  34  87 W10G17    29.89R
RICKENBACK AFB CLOUDY    38  34  85 W12       29.90R
NEWARK         CLOUDY    40  30  67 W10       29.87R
MARION         CLOUDY    37  31  78 NW9       29.86R
LANCASTER      CLOUDY    38  33  82 W8        29.89R
ZANESVILLE     CLOUDY    39  27  62 NW12G26   29.86R
NEW PHILLY     CLOUDY    39  27  62 W13       29.83R
$$




USA.gov is the U.S. government's official web portal to all federal, state and local government web resources and services.